Ketchikan, AK

10:42 PM AKDT on September 20, 2018 (GMT -0800)
Ketchikan International

Weather History for PAKT - October, 2017

Change the Weather History Date:

Monday, October 2, 2017

  Actual Average Record
Temperature  
Mean Temperature 48 °F -  
Max Temperature 62 °F 56 °F 67 °F (1987)
Min Temperature 37 °F 43 °F 30 °F (2000)
Degree Days  
Heating Degree Days 16    
Moisture  
Dew Point 38 °F    
Average Humidity 75    
Maximum Humidity 100    
Minimum Humidity 29    
Precipitation  
Precipitation 0.00 in - - ()
Sea Level Pressure  
Sea Level Pressure 30.42 in    
Wind  
Wind Speed 3 mph (SE)    
Max Wind Speed 13 mph    
Max Gust Speed -    
Visibility 9 miles    
Events Fog    
Averages and records for this station are not official NWS values.
T = Trace of Precipitation, MM = Missing Value Source: NWS Daily Summary

Daily Weather History Graph

Daily Weather History Graph

Search for Another Location

Airport or City:

Astronomy

Oct. 02, 2017 Rise Set
Actual Time 6:52 AM AKDT 6:18 PM AKDT
Civil Twilight 6:15 AM AKDT 6:55 PM AKDT
Nautical Twilight 5:33 AM AKDT 7:37 PM AKDT
Astronomical Twilight 4:49 AM AKDT 8:21 PM AKDT
Moon 5:35 PM AKDT (10/2) 2:46 AM AKDT (10/2)
Length of Visible Light 12h 39m
Length of Day
11h 26m
Waxing Gibbous, 90% of the Moon is Illuminated
Oct 2
Waxing Gibbous
Oct 5
Full
Oct 12
Last Quarter
Oct 19
New
Oct 27
First Quarter

Hourly Weather History & Observations

Time (AKDT) Temp. Windchill Dew Point Humidity Pressure Visibility Wind Dir Wind Speed Gust Speed Precip Events Conditions
12:53 AM 46.9 °F - 45.0 °F 93% 30.43 in 10.0 mi West 3.5 mph - N/A   Clear
1:53 AM 45.0 °F 41.8 °F 44.1 °F 97% 30.43 in 10.0 mi WNW 5.8 mph - N/A   Clear
2:53 AM 42.1 °F - 42.1 °F 100% 30.45 in 10.0 mi Calm Calm - N/A   Clear
3:53 AM 41.0 °F - 39.0 °F 93% 30.45 in 10.0 mi Calm Calm - N/A   Clear
4:53 AM 41.0 °F - 39.9 °F 96% 30.46 in 10.0 mi Calm Calm - N/A   Clear
5:53 AM 39.9 °F - 39.0 °F 97% 30.46 in 10.0 mi Calm Calm - N/A   Clear
6:02 AM 39.9 °F - 39.0 °F 97% 30.46 in 10.0 mi Calm Calm - N/A   Partly Cloudy
6:53 AM 37.4 °F - 37.4 °F 100% 30.46 in 10.0 mi Calm Calm - N/A   Partly Cloudy
7:53 AM 41.0 °F - 41.0 °F 100% 30.46 in 0.5 mi Calm Calm - N/A Fog Fog
8:00 AM 42.1 °F - 41.0 °F 96% 30.46 in 3.0 mi Calm Calm - N/A   Scattered Clouds
8:53 AM 46.0 °F 43.9 °F 43.0 °F 89% 30.46 in 10.0 mi East 4.6 mph - N/A   Clear
9:53 AM 50.0 °F - 44.1 °F 80% 30.45 in 10.0 mi East 6.9 mph - N/A   Clear
10:53 AM 54.0 °F - 42.1 °F 64% 30.45 in 10.0 mi SE 4.6 mph - N/A   Clear
11:53 AM 57.2 °F - 39.2 °F 51% 30.44 in 10.0 mi East 5.8 mph - N/A   Clear
12:53 PM 60.8 °F - 28.4 °F 29% 30.43 in 10.0 mi SSE 12.7 mph - N/A   Clear
1:53 PM 60.8 °F - 30.2 °F 31% 30.42 in 10.0 mi SSE 10.4 mph - N/A   Clear
2:53 PM 60.8 °F - 30.2 °F 31% 30.42 in 10.0 mi SE 6.9 mph - N/A   Clear
3:53 PM 60.8 °F - 30.2 °F 31% 30.39 in 10.0 mi SSE 11.5 mph - N/A   Clear
4:53 PM 57.2 °F - 33.8 °F 41% 30.39 in 10.0 mi Variable 3.5 mph - N/A   Clear
5:53 PM 51.1 °F - 37.9 °F 61% 30.40 in 10.0 mi Calm Calm - N/A   Clear
6:53 PM 46.9 °F - 37.0 °F 68% 30.38 in 10.0 mi SSE 3.5 mph - N/A   Clear
7:53 PM 45.0 °F - 39.0 °F 80% 30.37 in 10.0 mi Calm Calm - N/A   Clear
8:53 PM 44.1 °F - 37.9 °F 79% 30.37 in 10.0 mi Calm Calm - N/A   Clear
9:53 PM 44.1 °F - 39.0 °F 82% 30.36 in 10.0 mi Calm Calm - N/A   Clear
10:53 PM 41.0 °F - 37.9 °F 89% 30.36 in 10.0 mi Calm Calm - N/A   Clear
11:53 PM 45.0 °F - 39.0 °F 80% 30.36 in 10.0 mi Calm Calm - N/A   Clear